Regional Weather Roundup
Issued by NWS

Home | Current Version | Previous Version | Graphics & Text | Print | Product List | Glossary Off
Versions: 1 2 3 4 5 6 7 8 9 10 11 12 13 14 15 16 17 18 19 20 21 22 23 24 25 26 27 28 29 30 31 32 33 34 35 36 37 38 39 40 41 42 43 44 45 46 47 48 49 50

000
ASUS43 KMKX 122320
RWRWI

WISCONSIN REGIONAL WEATHER ROUNDUP
NATIONAL WEATHER SERVICE MILWAUKEE/SULLIVAN WI
500 PM CST TUE DEC 12 2017

NOTE: "FAIR" INDICATES FEW OR NO CLOUDS BELOW 12,000 FEET WITH NO
SIGNIFICANT WEATHER AND/OR OBSTRUCTIONS TO VISIBILITY.

WIZ001-002-006>008-014>016-023>028-130000-
NORTHWEST WISCONSIN

CITY           SKY/WX    TMP DP  RH WIND       PRES   REMARKS
SUPERIOR ARPT  MIX PCPN  14  10  81 S3        29.92F
ASHLAND        CLOUDY    12   2  64 S5        29.94F WCI   4
HAYWARD        CLOUDY    13   2  61 S3        29.91F
SIREN          CLOUDY    14   8  77 S6        29.92F WCI   5
CUMBERLAND     CLOUDY    12   5  73 S8        29.92F WCI   1
RICE LAKE      CLOUDY    13   6  72 S3        29.95F
CHETEK         CLOUDY    13   4  66 S3        29.94F
LADYSMITH      FLURRIES  14   1  57 SW6       29.95F WCI   5
EAU CLAIRE     CLOUDY    15   4  61 SW6       29.96F WCI   6
MENOMONIE      CLOUDY    16   7  65 S7        29.97F WCI   7
NEW RICHMOND   CLOUDY    15   8  74 S9        29.94F WCI   3
OSCEOLA        CLOUDY    16  10  79 S8        29.96F WCI   5
$$

WIZ003>005-009-010-017-018-130000-
NORTH CENTRAL WISCONSIN

CITY           SKY/WX    TMP DP  RH WIND       PRES   REMARKS
MANITOWISH WTR CLOUDY     8   2  75 CALM      29.88F
ARBOR VITAE    CLOUDY    10   4  76 CALM      29.89S
WOODRUFF       CLOUDY    10   4  76 CALM      29.89S
RHINELANDER    CLOUDY    10   1  67 CALM      29.88F
EAGLE RIVER    PTCLDY     6   0  75 SW3       29.87F
LAND O LAKES   CLOUDY     4   0  85 CALM      29.89F
PHILLIPS       CLOUDY    10  -2  57 SW5       29.89F WCI   2
TOMAHAWK       CLOUDY    10  -2  57 CALM      29.91F
MEDFORD        CLOUDY    11   1  62 SW5       29.91F WCI   3
MERRILL        CLOUDY    12  -3  50 W3        29.93F
$$

WIZ029-030-035-036-043>047-130000-
CENTRAL WISCONSIN

CITY           SKY/WX    TMP DP  RH WIND       PRES   REMARKS
WAUSAU         CLOUDY    11  -1  58 W5        29.93F WCI   3
MOSINEE        CLOUDY    10   1  67 W6        29.95F WCI   1
MARSHFIELD     CLOUDY    13   1  59 SW5       29.93F WCI   5
STEVENS POINT  PTCLDY    11  -3  53 W7        29.97F WCI   0
WAUPACA        MOCLDY    14   1  55 W3        29.99F
WAUTOMA        CLEAR     13   0  56 W6        29.99F WCI   4
WISC RAPIDS    MOCLDY    13   1  59 W5        29.99F WCI   5
CAMP DOUGLAS   CLOUDY    18   1  49 W3        29.99F
$$

WIZ011>013-019>022-031-037>040-048>050-130000-
NORTHEAST WISCONSIN

CITY           SKY/WX    TMP DP  RH WIND       PRES   REMARKS
ANTIGO         CLOUDY    10   0  64 CALM      29.91S
SHAWANO        CLEAR     17   3  56 CALM      29.97R
OCONTO         PTCLDY    13   2  62 W3        29.98S
STURGEON BAY   CLOUDY    16   4  59 NW10      29.96S WCI   4
GREEN BAY      CLEAR     14   2  58 NW3       29.98F
MANITOWOC      CLEAR     13   4  67 NW6       29.99F WCI   4
APPLETON       PTCLDY    12   0  57 W9        29.96F WCI   0
CLINTONVILLE   CLEAR     14   1  57 W7        29.97S WCI   4
OSHKOSH        CLEAR     14   2  58 W7        29.98S WCI   4
$$

WIZ032>034-041-042-053>061-130000-
SOUTHWEST WISCONSIN

CITY           SKY/WX    TMP DP  RH WIND       PRES   REMARKS
LA CROSSE      CLOUDY    21   5  50 SW8       30.01F WCI  11
SPARTA         CLOUDY    17   4  56 CALM      30.00F
VIROQUA        CLOUDY    17   6  63 W5        29.97F WCI  10
BOSCOBEL       CLOUDY    22   5  48 SW3       30.04F
PRAIRIE DU CHI CLOUDY    24   6  47 CALM      30.03F
PLATTEVILLE    CLOUDY    22   8  54 W7        30.02F WCI  13
$$

WIZ056-057-062-063-064-067-068-130000-
SOUTH CENTRAL WISCONSIN

CITY           SKY/WX    TMP DP  RH WIND       PRES   REMARKS
REEDSBURG      CLOUDY    18   1  47 W6        30.00F WCI  10
BARABOO/DELLS  MOCLDY    15  -1  47 CALM      30.00S
LONE ROCK      CLOUDY    19   6  57 W7        30.03F WCI  10
MINERAL POINT  CLOUDY    21   3  45 W3        29.99F
MADISON        PTCLDY    17   1  49 W3        30.00F
MIDDLETON      MOCLDY    18   2  51 CALM      30.00F
WATERTOWN      CLEAR     16   1  53 W3        29.99F
MONROE         CLOUDY    21   0  39 W8        30.00F WCI  12
JANESVILLE     PTCLDY    19  -2  38 NW9       30.01F WCI   9
$$

WIZ051-052-058>065-066-070>072-130000-
SOUTHEAST WISCONSIN

CITY           SKY/WX    TMP DP  RH WIND       PRES   REMARKS
MILWAUKEE      PTCLDY    19   4  51 NW6       30.00F WCI  11
WAUKESHA       CLEAR     16   1  53 W12       29.99F WCI   3
MILWAUKEE/TIMM CLEAR     16   1  53 NW9       30.00F WCI   4
RACINE         CLEAR     17   3  54 NW5       30.02F WCI  10
BURLINGTON     CLEAR     27  19  70 W6        30.00F WCI  21
KENOSHA        CLEAR     14   3  61 W5        30.00F WCI   6
FOND DU LAC    CLEAR     15  -1  49 W9        29.99S WCI   3
SHEBOYGAN      CLEAR     15   5  64 W6        29.97F WCI   6
WEST BEND      CLEAR     16   3  57 W9        29.97F WCI   4
JUNEAU         CLEAR     14   0  53 CALM      30.00S
$$

LSZ147-162-130000-
LAKE SUPERIOR

STATION/POSITION TIME  TEMP    WIND        PRES    WAVE
                       AIR SEA DIR/SP/G            HT/PER
                 (UTC) (F)     (DEG/KT/KT) (MB)    (FT/S)
DEVILS ISLAND    2300   15     170/  7/  9 1014.9F
SAXON HARBOR     2230   13                 1014.2F
$$

LMZ867-665-643>646-130000-
LAKE MICHIGAN

STATION/POSITION TIME  TEMP    WIND        PRES    WAVE
                       AIR SEA DIR/SP/G            HT/PER
                 (UTC) (F)     (DEG/KT/KT) (MB)    (FT/S)
NORTHPORT PIER   2237   17     300/ 10/ 21 1014.6R
KEWAUNEE LAKESHO 2254   16     280/  4/  7 1014.2F
SHEBOYGAN LAKESH 2300   17     280/  6/  7 1016.5F
PORT WASHINGTON  2240   17     290/  4/  8 1016.9F
MILWAUKEE LAKESH 2300   18     300/  7/  8   N/A
KENOSHA   LAKESH 2300   18     290/  7/  9 1016.3
$$

TC  - TEMPERATURE IN CELSIUS
VSB - VISIBILITY IN STATUTE MILES
WCI - WIND CHILL INDEX
HX  - HEAT INDEX




USA.gov is the U.S. government's official web portal to all federal, state and local government web resources and services.